User: anonymous   Login
Location: Cosy Dell
(34.2789°N, 117.4537°W)
Time: 12:21:45
(UTC+00:00)
Language:

CZ-4C R/B - Orbit

View from above orbital plane
View from above orbital plane
View from above satellite
View from above satellite

Ground track
Ground track

The orbit data is extracted from the following two-line orbital elements,

1 36416U 10009D   21127.16193741 -.00000085  00000-0  12155-4 0  9997
2 36416  63.4224  50.4068 0526813 355.5682   4.0783 13.69593170558841
Epoch (UTC): 07 May 2021 03:53:11
Eccentricity: 0.0526813
inclination: 63.4224°
perigee height: 612 km
apogee height: 1390 km
right ascension of ascending node: 50.4068°
argument of perigee: 355.5682°
revolutions per day: 13.69593170
mean anomaly at epoch: 4.0783°
orbit number at epoch: 55884

The dashed part of the orbit path shows where the satellite is in the earth's shadow,  

DLR